Regional Weather Roundup
Issued by NWS

Home | Current Version | Previous Version | Text Only | Print | Product List | Glossary On
Versions: 1 2 3 4 5 6 7 8 9 10 11 12 13 14 15 16 17 18 19 20 21 22 23 24 25 26 27
000
ASUS44 KJAN 281210
RWRMS

MISSISSIPPI HOURLY WEATHER ROUNDUP
NATIONAL WEATHER SERVICE JACKSON MS
700 AM CDT WED JUN 28 2017

NOTE: "FAIR: INDICATES FEW OR NO CLOUDS BELOW 12,000 FEET WITH NO
SIGNIFICANT WEATHER AND/OR OBSTRUCTIONS TO VISIBILITY.

MSZ001>002-007>008-010>013-018>021-025>028-034>036-281300-
NORTHWEST MISSISSIPPI

CITY           SKY/WX    TMP DP  RH WIND       PRES   REMARKS
BATESVILLE     FAIR      66  64  93 CALM      30.08R
CLARKSDALE       N/A     70  70 100 CALM      30.06R
CLEVELAND      FAIR      72  69  90 E3        30.05R
GREENWOOD      MOSUNNY   70  64  81 E5        30.04R
6HR MIN TEMP:  66; 6HR MAX TEMP:  73;

GREENVILLE     MOSUNNY   69  65  86 MISG      30.03R
6HR MIN TEMP:  65; 6HR MAX TEMP:  71;

OLIVE BRANCH   MOSUNNY  N/A N/A N/A CALM      30.06
OXFORD         FAIR      68  61  77 SE6       30.10R
TUNICA           N/A     68  64  88 CALM      30.07R
WINONA         FAIR      65  65 100 CALM      30.04R
$$

MSZ003>006-009-014>017-022>024-029>033-037>039-281300-
NORTHEAST MISSISSIPPI

CITY           SKY/WX    TMP DP  RH WIND       PRES   REMARKS
COLUMBUS AFB   SUNNY     68  64  86 CALM      30.05R
6HR MIN TEMP:  64; 6HR MAX TEMP:  71;

CORINTH          N/A    N/A N/A N/A MISG        N/A
GOLDN TRIANGLE SUNNY     70  57  64 SE12      30.03R
STARKVILLE     FAIR      64  63  94 CALM      30.06R
TUPELO         SUNNY     68  63  84 N5        30.08R
6HR MIN TEMP:  65; 6HR MAX TEMP:  70;

$$

MSZ040-058-281300-
CENTRAL MISSISSIPPI

CITY           SKY/WX    TMP DP  RH WIND       PRES   REMARKS
JACKSON INTL   SUNNY     71  65  81 SE5       30.02S
6HR MIN TEMP:  67; 6HR MAX TEMP:  71;

JACKSON HAWKNS SUNNY     71  64  78 SE6       30.02S
6HR MIN TEMP:  69; 6HR MAX TEMP:  73;

MADISON        FAIR      70  66  88 CALM      30.03R
MERIDIAN KEY   SUNNY     69  67  93 CALM      30.04S
6HR MIN TEMP:  66; 6HR MAX TEMP:  70;

MERIDIAN NAS   MOSUNNY   68  63  84 CALM      30.05S
6HR MIN TEMP:  65; 6HR MAX TEMP:  70;

RAYMOND        FAIR      68  66  94 MISG      30.02S FOG
VICKSBURG VKS  SUNNY     72  66  83 CALM      29.98S
$$

MSZ059>079-281300-
SOUTH MISSISSIPPI

CITY           SKY/WX    TMP DP  RH WIND       PRES   REMARKS
COLUMBIA       FAIR      70  68  94 CALM      30.04S
HATTIESBURG    CLOUDY    71  68  90 CALM      30.02S
6HR MIN TEMP:  69; 6HR MAX TEMP:  73;

LAUREL         PTSUNNY   69  69 100 CALM      30.03S
MCCOMB         MOSUNNY   72  67  84 E3        30.01R
6HR MIN TEMP:  72; 6HR MAX TEMP:  74;

NATCHEZ        SUNNY     72  68  87 E6        30.00S
6HR MIN TEMP:  68; 6HR MAX TEMP:  72;

PINE BELT      PTSUNNY   70  64  83 NE3       30.04S
6HR MIN TEMP:  66; 6HR MAX TEMP:  70;

$$

MSZ080>082-281300-
COASTAL MISSISSIPPI

CITY           SKY/WX    TMP DP  RH WIND       PRES   REMARKS
BAY ST LOUIS   MOSUNNY   73  70  88 MISG      29.99
BILOXI         CLOUDY    76  70  82 E9        30.00R
6HR MIN TEMP:  76; 6HR MAX TEMP:  78; 6HR PCP: TRACE;

PASCAGOULA     MOSUNNY   74  69  85 E5        30.01R
6HR MIN TEMP:  73; 6HR MAX TEMP:  75;

GULFPORT       CLOUDY    76  71  85 E6        29.99S
6HR MIN TEMP:  76; 6HR MAX TEMP:  79;

$$

LAZ007>009-015>016-023>026-281300-
NORTHEAST LOUISIANA

CITY           SKY/WX    TMP DP  RH WIND       PRES   REMARKS
BASTROP        FAIR      69  68  98 CALM      30.02R
TALLULAH/VBURG SUNNY     70  67  90 CALM      30.01R
6HR MIN TEMP:  67; 6HR MAX TEMP:  71;

VIDALIA        FAIR      71  69  92 E3        29.98F
$$




USA.gov is the U.S. government's official web portal to all federal, state and local government web resources and services.